User: anonymous   Login
Location: Mountain Meadows Observatory
(38.9513°N, 78.9327°W)
Time: 18:57:37
(UTC-04:00)
Language:

N. Korean satellite - Orbit

View from above orbital plane
View from above orbital plane
View from above satellite
View from above satellite

Ground track
Ground track

The orbit data is extracted from the following two-line orbital elements,

1 39026U 12072A   19170.77726476  .00000844  00000-0  33023-4 0  9997
2 39026  97.2104 173.8904 0039956  97.1379 263.4406 15.27805423361760
Epoch (UTC): 19 June 2019 18:39:15
Eccentricity: 0.0039956
inclination: 97.2104°
perigee height: 455 km
apogee height: 510 km
right ascension of ascending node: 173.8904°
argument of perigee: 97.1379°
revolutions per day: 15.27805423
mean anomaly at epoch: 263.4406°
orbit number at epoch: 36176

The dashed part of the orbit path shows where the satellite is in the earth's shadow,  

DLR